User: anonymous   Login
Location: Bothwell
(42.3833°S, 147.0000°E)
Time: 21:06:21
(UTC+10:00)
Language:

POLYITAN 1 - Orbit

View from above orbital plane
View from above orbital plane
View from above satellite
View from above satellite

Ground track
Ground track

The orbit data is extracted from the following two-line orbital elements,

1 40042U 14033AJ  24110.85317491  .00034829  00000-0  27278-2 0  9991
2 40042  98.0578  72.8432 0013525 340.3326  19.7373 15.00841624534083
Epoch (UTC): 19 April 2024 20:28:34
Eccentricity: 0.0013525
inclination: 98.0578°
perigee height: 555 km
apogee height: 573 km
right ascension of ascending node: 72.8432°
argument of perigee: 340.3326°
revolutions per day: 15.00841624
mean anomaly at epoch: 19.7373°
orbit number at epoch: 53408

The dashed part of the orbit path shows where the satellite is in the earth's shadow,  

DLR